Regional Weather Roundup
Issued by NWS

Home | Current Version | Previous Version | Graphics & Text | Print | Product List | Glossary On
Versions: 1 2 3 4 5 6 7 8 9 10 11 12 13 14 15 16 17 18 19 20 21 22 23 24 25 26 27 28 29 30 31 32 33 34 35 36 37 38 39 40 41 42 43 44 45 46 47 48 49 50
497
ASUS45 KCYS 192210
RWRWY

WYOMING REGIONAL WEATHER ROUNDUP
NATIONAL WEATHER SERVICE CHEYENNE WY
300 PM MST MON FEB 19 2018

NOTE:  "FAIR" INDICATES FEW OR NO CLOUDS BELOW 12,000 FEET
WITH NO SIGNIFICANT WEATHER AND/OR OBSTRUCTIONS TO VISIBILITY.

WYZ001-192300-
YELLOWSTONE NATIONAL PARK

CITY           SKY/WX    TMP DP  RH WIND       PRES   REMARKS
LK YELLOWSTONE   N/A      7   0  73 VRB6      29.44S WCI  -3
W YELLOWSTONE  NOT AVBL

$$
WYZ002>013-054>058-071-098>099-192300-
NORTHERN WYOMING

CITY           SKY/WX    TMP DP  RH WIND       PRES   REMARKS
JACKSON        CLOUDY    23   9  55 S5        29.45R WCI  17
CODY           LGT SNOW  -3 -10  72 N12       29.77S VSB 1   WCI -21
GREYBULL       CLOUDY     2  -4  76 NW14      29.86R HAZE    WCI -16
WORLAND        SNOW       1  -4  79 N13       29.84R VSB 1/2 WCI -17
SHERIDAN       LGT SNOW   2  -3  80 NW7       29.88R WCI -11
BUFFALO        LGT SNOW   0  -6  76 N12       29.77R WCI -17
GILLETTE       CLOUDY     0  -6  76 N15       29.78F HAZE    WCI -19
HULETT         LGT SNOW   1  -6  71 MISG      29.82S
NEWCASTLE      LGT SNOW   3  -4  72 NW3       29.78F

$$
WYZ014>020-022>026-101>103-192300-
CENTRAL WYOMING

CITY           SKY/WX    TMP DP  RH WIND       PRES   REMARKS
BIG PINEY      CLOUDY     9   4  80 S20       29.43R WCI -10
PINEDALE       LGT SNOW  10   3  72 S6        29.43S WCI   1
DUBOIS         NOT AVBL
LANDER         LGT SNOW   2  -2  83 E6        29.66R VSB 3/4 WCI  -9
RIVERTON       LGT SNOW   2  -7  66 N9        29.68R WCI -13
CASPER         LGT SNOW  -2  -6  83 NE18      29.68R FOG     WCI -24
DOUGLAS        CLOUDY     0  -6  76 SE8       29.72R HAZE    WCI -14

$$
WYZ021-027>030-104>119-192300-
SOUTHERN WYOMING

CITY           SKY/WX    TMP DP  RH WIND       PRES   REMARKS
EVANSTON       LGT SNOW  11   7  84 S3        29.45R FOG
ROCK SPRINGS   LGT SNOW   3  -5  69 NE18      29.49R WCI -17
DIXON          LGT SNOW   8   2  75 W9        29.45S VSB 1   WCI  -5
RAWLINS        HAZE      -2  -8  76 N16       29.48R VSB 1   WCI -23
SARATOGA       LGT SNOW   3  -2  78 NW14      29.42R WCI -15
LARAMIE        HVY SNOW   7   5  91 SE29G36   29.31S VSB 1/4 WCI -16
CHEYENNE       LGT SNOW   5   2  87 E9        29.52R VSB 1   WCI  -9
TORRINGTON     CLOUDY     4  -2  76 E12       29.74F WCI -12
PINE BLUFFS    CLOUDY     7   1  78 NE9       29.63R WCI  -7

$$




USA.gov is the U.S. government's official web portal to all federal, state and local government web resources and services.